RH
62 81 69 64 51 40 39 30 19 19 18 20 27 33 32 32 32 47 83 81 79 82 95 92 93 67 58 56 44 41 56 33 46 59 68 62 83 85 79 60 69 73 57 82 42 25 25 25 28
76 72 66 50 51 44 31 20 22 18 19 21 36 40 41 37 52 62 79 79 82 80 99 98 89 60 56 51 37 68 81 50 56 61 62 68 86 88 75 47 33 43 87 92 42 29 27 26 26
80 73 54 43 48 48 31 18 18 16 20 21 29 40 42 41 58 68 89 84 80 92 98 100 80 61 58 45 49 79 75 58 65 65 60 77 89 86 70 23 41 90 97 39 31 32 31 32 33
63 57 53 48 38 29 28 20 14 17 20 20 31 35 54 58 59 76 87 88 83 93 98 98 73 65 61 41 74 84 69 57 72 64 72 84 93 84 50 33 92 89 69 36 35 34 34 35 36
62 51 47 37 37 28 19 19 18 18 20 20 23 33 39 53 57 71 88 72 91 93 92 96 76 73 63 44 84 83 67 61 67 76 88 88 91 68 62 72 75 94 92 39 40 39 39 41 42
52 42 45 37 28 21 19 17 18 19 19 19 20 29 33 43 71 66 47 66 89 93 95 96 78 80 60 48 85 89 70 74 83 86 91 96 87 47 34 72 82 98 51 43 43 44 43 45 44
52 43 40 30 26 20 17 16 17 20 19 20 20 25 31 42 58 51 43 56 96 96 95 99 75 85 64 48 86 95 85 85 88 92 100 100 81 34 66 72 91 95 42 45 45 45 45 44 44
48 43 46 36 33 27 17 14 16 20 20 21 21 24 33 40 41 55 45 60 99 100 94 97 96 91 84 66 86 98 96 97 98 99 98 80 53 31 55 72 90 90 50 48 48 45 42 41 40
49 52 49 38 35 29 20 18 15 18 20 22 23 25 33 47 60 58 64 54 60 76 93 97 96 98 92 87 80 92 99 100 100 100 81 45 29 39 61 73 71 62 50 47 46 43 42 40 38
50 50 44 27 24 25 21 19 18 18 20 24 27 28 34 66 79 68 60 60 54 64 74 94 94 90 81 89 53 62 82 97 99 93 78 73 64 83 91 49 46 44 44 47 47 44 41 40 52
44 52 31 27 25 24 24 23 21 22 22 22 25 29 42 66 84 80 69 69 67 67 82 80 99 86 79 93 76 79 62 77 86 96 94 83 84 80 93 44 46 47 50 50 44 41 40 62 71
43 37 34 32 29 26 28 28 30 30 26 27 23 26 42 55 80 98 64 68 71 75 72 68 100 84 75 88 84 79 70 74 82 88 82 82 86 93 92 52 44 44 42 76 63 76 73 57 64
42 35 34 33 32 32 30 32 39 30 33 40 31 37 52 61 80 98 75 67 52 52 70 94 99 84 86 89 86 79 72 72 75 84 84 86 86 82 84 82 81 78 71 76 71 68 70 61 75
50 44 37 35 34 32 33 30 31 38 39 42 49 51 52 62 68 96 92 61 58 63 76 84 98 85 81 87 92 93 85 79 84 83 81 81 81 81 80 81 80 77 62 68 72 76 81 81 82
59 54 42 39 36 34 31 36 35 35 38 41 48 52 57 51 69 89 76 53 46 56 62 74 100 76 87 90 98 95 90 96 94 96 94 90 76 78 54 86 63 57 50 59 64 81 83 80 81
56 52 65 38 35 40 37 56 32 31 36 40 47 54 56 47 68 82 80 72 59 58 49 68 92 75 85 95 69 86 92 98 88 94 92 78 53 47 43 49 53 51 49 51 75 82 82 77 79
47 66 68 71 45 40 44 60 37 31 48 48 50 55 56 52 59 74 96 85 71 67 67 75 83 76 71 94 93 91 82 82 87 90 91 90 62 56 59 65 73 66 64 63 84 82 76 73 82
57 66 57 92 51 43 50 60 45 54 49 50 60 57 54 52 62 73 81 92 95 70 81 72 78 76 74 95 95 98 94 79 62 54 60 88 79 81 74 77 91 98 89 82 90 86 76 79 79
51 62 70 85 84 48 54 57 44 37 44 51 59 72 56 56 67 73 88 95 95 83 74 76 85 84 86 87 90 96 98 72 59 62 61 62 68 85 91 80 89 97 96 96 88 84 81 90 88
61 64 64 66 66 55 53 49 41 42 43 46 61 67 67 70 84 98 88 94 96 80 77 70 71 66 80 79 84 81 89 91 87 73 70 70 72 69 86 87 96 100 99 94 94 90 90 91 90
64 66 58 83 86 64 66 74 65 59 62 54 67 63 79 75 93 86 97 99 98 86 88 81 85 84 88 86 82 85 82 88 99 98 89 84 87 93 88 90 92 94 97 97 99 96 90 93 90
88 42 57 87 98 92 57 86 92 92 70 62 64 75 88 100 90 81 99 100 100 96 74 82 82 87 80 89 85 80 77 81 73 81 86 80 78 83 85 82 82 87 85 100 98 89 98 90 90
67 44 69 68 64 89 69 67 99 93 85 75 79 85 100 99 87 88 71 95 92 98 96 90 89 92 88 90 91 85 83 86 90 87 80 75 80 82 82 80 79 87 91 90 96 90 91 95 82
71 60 56 60 70 95 96 99 100 99 95 86 68 75 92 98 96 99 87 94 90 92 88 81 86 84 89 84 89 82 76 75 87 95 96 76 73 74 70 75 64 67 96 98 88 72 77 89 90
81 60 92 93 88 94 97 98 100 76 77 73 74 71 71 76 84 88 92 96 94 83 80 83 83 80 81 79 82 84 85 86 82 82 84 88 84 79 84 80 66 71 87 96 77 81 82 95 90
81 86 96 66 81 91 82 96 100 60 59 69 72 69 84 82 79 70 68 72 70 62 60 56 56 56 57 64 82 83 84 86 90 94 90 89 82 85 80 86 79 88 92 90 85 92 97 91 77
62 70 45 52 42 53 83 98 77 69 64 74 66 70 64 71 75 71 60 64 64 57 53 51 50 50 48 48 47 46 57 74 78 78 83 83 76 74 77 85 98 98 97 98 99 100 97 80 72
80 49 70 63 61 63 75 87 93 90 75 75 78 64 57 59 58 60 62 68 65 59 55 51 50 48 49 48 46 47 48 59 68 72 72 67 67 62 66 73 99 100 100 99 100 95 86 82 50
59 50 43 41 47 41 56 88 40 47 59 48 50 53 56 54 55 58 63 63 68 58 59 60 57 54 54 55 56 60 63 64 60 55 50 50 53 53 65 69 88 98 100 100 99 87 90 54 60
57 47 40 46 45 42 44 62 33 39 40 44 48 48 49 49 49 49 49 49 47 47 45 42 43 45 54 60 59 57 55 53 52 51 50 48 48 50 63 84 100 100 100 97 95 89 61 57 60
Wind_Speed
6 6 6 9 8 9 22 24 23 19 22 24 16 7 10 10 4 3 2 6 9 21 23 25 20 20 18 15 14 16 18 22 23 21 20 18 18 18 16 17 19 17 21 17 16 18 18 18 18
8 6 9 13 12 17 18 22 25 22 18 15 13 11 9 9 1 3 3 0 14 21 23 24 22 19 18 16 16 18 19 22 23 22 21 21 19 18 19 16 19 20 21 19 19 18 17 17 17
7 5 11 6 17 22 20 20 20 22 22 18 15 20 8 8 4 3 2 1 23 20 21 22 21 19 17 17 18 19 20 23 24 23 23 22 20 18 18 19 21 21 20 20 20 18 17 16 16
6 8 11 14 23 24 28 23 17 19 23 29 19 14 7 10 7 5 3 5 22 21 21 23 21 20 18 19 20 19 21 25 25 25 24 23 19 19 18 22 22 21 20 20 20 18 16 15 15
9 11 13 19 28 26 20 23 31 19 24 31 24 25 17 14 16 4 4 3 19 19 23 23 21 19 18 21 20 20 22 25 25 25 25 23 19 20 22 23 23 21 19 21 18 16 14 13 12
11 10 16 20 27 24 23 31 27 28 27 28 29 27 29 17 17 17 10 8 21 23 23 22 23 19 19 23 22 20 24 26 26 26 25 23 21 20 24 23 22 20 20 19 17 14 12 11 10
15 13 22 26 25 24 22 27 26 25 30 24 30 23 30 18 19 26 20 19 23 20 22 21 24 21 20 23 25 20 24 26 27 27 24 21 20 22 24 23 21 19 20 18 16 13 11 9 8
15 12 28 25 22 28 25 27 30 32 28 34 29 21 20 19 25 28 32 38 19 14 20 22 22 23 20 22 27 25 25 26 29 26 22 21 22 24 24 22 20 18 18 17 14 11 9 7 5
15 13 20 25 26 24 25 25 31 31 33 35 32 31 23 14 16 31 32 27 35 43 33 22 25 22 20 18 27 27 25 26 22 21 18 19 24 25 23 21 21 19 17 15 13 10 7 5 4
15 16 26 22 21 21 26 29 30 30 30 33 33 33 24 11 12 25 32 26 44 35 43 37 28 25 23 20 24 27 28 24 21 20 19 19 19 19 16 21 20 18 16 14 11 8 6 4 1
21 22 22 24 27 30 29 27 31 29 26 30 32 30 18 17 22 26 25 27 19 30 47 52 32 31 31 24 22 20 23 21 19 19 19 16 17 20 20 21 20 17 15 12 10 8 6 3 6
22 25 26 28 32 30 22 31 27 31 28 29 34 32 19 26 22 24 29 23 18 19 30 35 38 35 32 30 26 21 20 20 20 17 20 18 17 18 14 16 17 14 13 7 7 5 6 7 7
21 20 26 28 27 28 30 26 28 32 31 28 25 25 13 14 27 22 24 20 15 8 19 24 32 30 27 29 28 25 21 20 20 22 20 18 16 16 15 13 14 12 11 11 10 9 8 6 6
16 18 20 27 27 25 25 28 32 29 33 32 19 26 22 23 19 23 23 23 20 16 26 8 28 28 26 25 21 25 25 19 18 19 19 17 15 15 15 13 12 12 12 11 10 8 8 7 7
19 18 18 22 23 24 26 26 27 34 32 25 22 25 24 26 14 19 28 27 21 18 25 23 8 24 25 25 20 19 19 23 21 17 17 16 16 16 16 13 13 12 12 10 10 8 9 8 8
13 9 13 18 22 25 24 25 26 33 31 30 20 22 21 27 15 21 28 22 29 34 27 22 17 22 19 18 26 23 23 16 19 18 17 17 16 16 16 15 13 11 11 11 9 9 9 8 7
13 13 13 17 21 19 22 18 24 32 18 14 18 21 20 25 17 25 24 19 30 31 26 32 32 26 22 17 17 17 23 26 23 19 19 18 18 18 17 16 14 13 12 11 11 10 9 8 8
8 9 15 13 8 21 19 19 11 15 11 7 8 15 19 25 21 26 29 20 23 30 27 40 36 30 27 18 19 17 17 18 20 21 22 20 20 19 20 16 14 12 12 11 11 11 10 9 9
15 14 14 12 13 19 19 19 20 15 13 12 5 11 20 19 25 30 33 23 26 29 26 42 34 32 27 17 19 19 18 19 18 19 17 18 19 18 17 17 13 14 13 11 12 11 12 12 12
13 14 15 4 3 10 14 15 14 11 15 11 5 8 12 17 18 12 34 28 28 32 33 39 31 30 20 18 20 18 17 15 15 18 18 17 16 16 17 17 16 15 15 15 14 13 14 15 11
13 14 14 5 4 8 4 8 9 6 12 13 10 8 12 20 21 12 10 25 30 32 33 36 29 23 17 14 17 16 18 17 16 14 16 14 15 17 17 16 17 20 21 19 18 18 21 15 13
12 15 5 4 5 2 8 2 6 11 9 8 6 7 13 20 17 12 7 21 30 34 38 28 23 22 23 21 17 18 13 14 12 15 16 15 14 12 16 18 17 17 17 22 24 23 20 17 11
6 3 4 12 11 4 9 4 4 7 3 4 9 17 17 25 21 14 8 6 8 11 28 17 22 23 23 23 20 18 15 13 16 17 16 16 16 11 12 12 13 18 20 16 18 25 30 13 14
13 9 10 10 11 1 5 2 3 6 6 7 18 21 17 22 23 14 20 17 13 14 16 19 21 21 22 25 23 23 24 18 19 22 20 18 19 18 20 20 14 16 23 19 7 2 21 30 24
10 9 3 3 2 3 3 1 6 9 3 5 17 19 20 22 19 17 12 16 18 17 15 17 22 24 26 28 29 27 29 30 30 25 25 27 30 26 23 24 25 21 14 19 14 21 25 28 25
2 2 4 2 1 1 3 6 4 10 10 18 18 17 20 21 19 14 11 7 9 10 13 13 13 14 14 12 14 21 27 25 26 29 25 24 26 22 30 30 28 23 22 20 19 24 23 21 19
1 4 7 3 6 4 4 3 12 16 15 17 22 19 19 16 18 16 14 10 9 11 12 11 10 12 13 12 11 12 13 17 20 22 23 25 21 21 21 24 29 32 31 26 26 27 24 22 20
5 8 4 3 1 5 5 8 5 11 13 12 13 13 21 18 15 11 8 6 7 7 8 6 5 5 8 11 12 12 14 13 16 17 19 19 19 18 19 20 28 28 27 26 27 27 25 24 22
1 3 4 3 3 2 4 4 6 11 12 15 15 17 16 17 15 16 15 15 12 12 11 9 7 5 3 4 5 8 11 13 14 15 16 16 18 17 20 20 21 26 29 30 29 27 26 26 23
4 7 6 1 4 7 10 6 6 11 13 17 17 18 17 16 15 14 15 14 15 14 12 10 7 5 3 1 3 6 8 10 11 13 14 15 16 18 19 20 25 29 32 30 29 28 28 27 24
Wind_Direction
215 268 246 235 234 234 243 237 249 249 236 224 223 208 235 289 265 230 74 214 170 195 190 184 188 185 187 190 188 178 172 177 179 182 182 179 173 166 158 154 152 154 139 135 137 125 119 117 115
217 231 233 248 236 241 236 239 237 240 243 231 173 192 244 218 349 79 39 27 157 199 188 182 190 185 187 188 185 178 174 173 173 175 177 174 169 167 161 159 156 151 138 143 134 127 121 118 114
228 221 240 223 235 238 247 234 233 235 227 249 225 209 209 218 157 132 75 96 176 192 185 189 186 187 187 185 183 178 175 173 171 172 172 171 170 169 162 157 149 143 149 142 135 129 123 118 113
230 222 243 248 235 234 245 257 266 231 223 228 218 238 214 222 165 149 141 152 178 187 186 195 189 186 188 185 180 179 171 171 169 169 171 170 170 172 161 155 147 151 140 141 137 132 127 121 116
218 243 239 233 240 252 256 242 253 249 228 234 226 229 221 232 213 201 177 189 186 195 193 198 194 188 189 184 180 177 173 170 170 171 170 169 170 166 155 156 152 144 149 143 144 138 131 125 121
228 242 244 240 244 243 244 254 253 244 244 229 235 236 247 235 225 213 247 265 189 195 196 198 193 193 191 184 180 176 175 172 172 171 170 171 178 169 161 160 152 152 152 150 149 144 137 131 124
245 235 247 256 259 259 248 243 246 246 245 227 247 241 233 227 242 230 224 244 192 199 199 190 190 194 193 188 182 171 175 174 171 170 169 176 174 171 160 160 157 159 157 156 152 148 143 137 133
244 252 260 254 260 262 263 260 247 246 240 250 242 255 251 227 245 225 224 224 211 186 201 197 187 189 185 187 185 180 171 171 175 169 181 171 173 167 164 163 161 163 163 160 160 159 156 152 146
236 246 250 251 253 263 262 265 257 244 248 248 243 249 252 253 218 223 213 238 256 268 277 207 194 182 180 181 184 184 186 177 172 182 183 179 167 165 167 166 169 170 170 168 173 174 173 169 165
222 233 248 258 266 265 261 258 255 261 234 241 255 251 254 253 210 213 209 242 253 260 263 301 192 184 175 180 180 183 186 190 187 191 190 160 165 167 163 175 176 178 180 183 188 190 190 188 212
227 244 261 259 261 262 267 266 252 258 254 239 237 236 265 222 224 203 205 219 237 281 257 271 202 184 176 182 167 171 174 178 178 177 171 167 161 176 184 179 180 183 185 194 199 205 207 183 197
249 253 259 265 265 271 258 261 260 263 264 261 243 241 235 248 229 203 201 191 199 240 260 276 208 184 181 172 173 174 167 169 173 177 166 173 174 171 172 181 180 183 189 186 197 215 217 218 216
263 252 256 261 262 259 261 260 267 257 265 258 255 272 272 261 222 202 200 192 199 290 255 214 221 175 176 178 175 171 170 169 168 171 176 174 176 171 175 177 181 182 190 200 208 208 223 223 222
264 270 262 254 254 250 248 252 253 251 259 253 269 262 256 245 242 206 202 201 193 193 200 221 199 165 173 185 178 176 167 170 169 170 173 175 176 174 176 178 184 194 206 206 209 213 211 214 220
261 274 265 252 253 245 248 247 241 246 246 252 242 264 259 239 246 199 204 203 210 198 199 216 174 173 182 185 178 176 171 179 175 173 178 175 183 183 183 183 193 207 219 217 220 211 207 211 219
256 268 268 259 242 242 233 248 238 235 239 243 245 259 248 218 239 232 221 212 195 186 211 222 200 190 177 191 190 183 182 182 186 182 186 186 193 198 200 204 209 220 223 222 214 212 220 219 223
225 257 250 280 259 218 213 238 247 213 206 242 251 250 238 224 245 234 225 232 210 202 200 177 180 187 188 188 183 192 189 188 188 188 192 191 198 200 202 209 217 221 223 225 218 217 215 223 225
312 264 291 271 231 213 209 232 179 191 199 261 294 253 229 224 259 227 219 218 195 182 171 173 180 182 191 192 186 181 189 192 197 198 200 199 204 210 209 211 213 222 225 214 220 222 220 209 229
283 283 276 282 273 190 214 215 236 229 228 245 334 290 229 223 250 213 219 221 195 188 200 183 185 188 193 197 197 187 181 183 194 201 200 208 205 209 214 216 221 232 223 229 222 220 217 214 214
273 271 276 272 261 193 226 222 233 244 250 241 258 314 243 242 190 193 220 218 194 179 171 185 194 180 214 217 208 201 186 193 196 193 194 200 207 216 224 224 221 226 230 227 229 217 222 216 208
244 251 262 338 220 242 208 220 227 250 275 235 237 278 237 204 176 218 269 187 186 183 180 165 179 192 203 207 198 199 203 197 194 191 197 204 210 220 227 239 246 255 254 242 221 219 222 211 209
263 245 248 198 277 140 211 337 341 312 292 218 210 249 174 132 141 154 54 173 173 183 178 181 186 204 202 209 209 208 216 213 208 209 208 206 203 213 229 242 251 260 263 252 241 232 221 220 214
269 302 178 247 272 273 51 209 331 3 139 169 172 127 124 137 129 146 162 75 148 164 194 175 195 215 224 230 233 232 228 229 227 230 237 231 229 235 251 261 269 263 263 258 252 256 229 215 226
288 257 227 254 263 356 347 329 30 12 329 125 113 116 125 138 129 148 170 172 141 144 156 183 213 228 233 234 230 244 240 237 238 245 248 250 239 242 255 248 281 296 259 243 199 211 243 246 238
251 213 192 203 261 16 298 273 47 20 245 116 105 113 114 112 118 131 163 196 205 195 212 228 234 242 238 240 248 242 241 236 235 234 239 247 253 254 255 249 248 254 235 224 240 233 243 242 251
242 268 318 324 76 326 87 32 29 40 81 86 74 98 105 109 108 119 143 146 181 193 207 218 224 229 230 235 241 244 251 249 246 235 238 243 252 257 237 247 229 234 234 231 234 230 237 231 234
33 295 335 312 93 54 45 128 39 34 54 63 67 62 85 109 106 91 86 133 152 182 192 196 208 222 232 231 229 238 241 235 232 242 243 243 250 254 256 247 232 234 238 235 231 231 227 227 234
241 331 292 241 5 67 51 54 53 55 65 84 67 75 73 80 82 104 94 91 128 140 134 140 164 187 222 233 236 235 237 238 237 238 241 248 250 245 246 244 231 234 233 221 224 227 224 228 225
133 339 251 288 326 83 104 67 28 84 95 92 107 101 89 84 85 84 87 91 89 84 87 87 88 110 147 192 222 229 230 234 238 239 243 246 248 248 245 237 235 222 219 221 228 223 227 222 229
282 16 7 331 54 67 92 79 87 94 101 105 102 100 100 96 92 86 81 78 78 73 70 68 64 72 87 117 220 235 241 235 235 238 243 247 249 247 241 233 225 223 224 224 223 222 223 225 239